This demonstration page uses our WeatherBlox Daily Observations layout. Learn more.

38.80484, -77.04692

Hourly Observations for May 17, 2019

Temp ( °F °C ) Dew Point ( °F °C ) Humidity (%) Winds ( mph kmh ) Pressure ( in mb ) Visibility ( mi km ) Precip ( " mm )
12:52 am 00:52 Mostly Clear 62 16.7 55 12.8 78 78 S 6 9 29.88 1012 10 16.0934 0 0
1:52 am 01:52 Mostly Clear 61 16.1 56 13.3 84 84 S 5 7 29.87 1012 10 16.0934 0 0
2:52 am 02:52 Partly Cloudy 61 16.1 56 13.3 84 84 Calm 29.86 1011 10 16.0934 0 0
3:52 am 03:52 Partly Cloudy 61 16.1 55 12.8 81 81 Calm 29.85 1011 10 16.0934 0 0
4:52 am 04:52 Mostly Cloudy 59 15 56 13.3 90 90 S 6 9 29.83 1010 10 16.0934 0 0
5:52 am 05:52 Cloudy 60 15.6 54 12.2 80 80 SSW 5 7 29.83 1010 10 16.0934 0 0
6:52 am 06:52 Cloudy 61 16.1 53 11.7 75 75 SSW 9 15 29.84 1011 10 16.0934 0 0
7:52 am 07:52 Cloudy 62 16.7 56 13.3 80 80 S 7 11 29.85 1011 10 16.0934 0 0
8:52 am 08:52 Cloudy 63 17.2 56 13.3 78 78 S 8 13 29.85 1011 10 16.0934 0 0
9:52 am 09:52 Cloudy 64 17.8 56 13.3 75 75 S 8 13 29.84 1011 10 16.0934 0 0
10:52 am 10:52 Cloudy 64 17.8 57 13.9 78 78 S 12 19 29.84 1011 10 16.0934 0 0
11:52 am 11:52 Cloudy 68 20 58 14.4 70 70 S 9 15 29.84 1010 10 16.0934 0 0
12:52 pm 12:52 Mostly Cloudy 70 21.1 58 14.4 66 66 SSE 6 9 29.81 1009 10 16.0934 0 0
1:52 pm 13:52 Mostly Cloudy 74 23.3 61 16.1 64 64 S 10 17 29.8 1009 10 16.0934 0 0
2:52 pm 14:52 Mostly Cloudy 75 23.9 61 16.1 62 62 S 12 19 29.79 1009 10 16.0934 0 0
3:52 pm 15:52 Mostly Cloudy 78 25.6 62 16.7 58 58 SSW 12 19 29.78 1009 10 16.0934 0 0
4:36 pm 16:36 Mostly Cloudy 81 27.2 61 16.1 51 51 W 9 15 29.79 1009 10 16.0934 0 0
4:52 pm 16:52 Mostly Cloudy 81 27.2 62 16.7 53 53 VRB 7 11 29.79 1009 10 16.0934 0 0
5:52 pm 17:52 Mostly Cloudy 78 25.6 63 17.2 60 60 S 8 13 29.79 1009 10 16.0934 0 0
6:52 pm 18:52 Mostly Cloudy 82 27.8 60 15.6 47 47 NW 8 13 29.79 1009 10 16.0934 0 0
7:52 pm 19:52 Mostly Cloudy 80 26.7 60 15.6 51 51 WNW 9 15 29.82 1010 10 16.0934 0 0
8:52 pm 20:52 Mostly Cloudy 79 26.1 60 15.6 52 52 WNW 6 9 29.84 1010 10 16.0934 0 0
10:52 pm 22:52 Mostly Cloudy 74 23.3 61 16.1 64 64 SSW 6 9 29.88 1012 10 16.0934 0 0
11:52 pm 23:52 Cloudy 71 21.7 62 16.7 73 73 S 3 6 29.88 1012 10 16.0934 0 0

Powered by AerisWeather